Dewpoint
-6 -4 -3 -1 0 2 2 2 3 4 5 6 6 6 7 7 7 9 9 9 10 10 10 10 11 11 11 10 10 10 10 9 10 10 8 7 8 8 9 8 9 8 8
-7 -6 -4 -3 -2 -1 -1 -0 1 1 3 4 4 4 5 5 6 6 7 8 7 8 10 10 10 10 10 9 10 10 9 10 9 9 7 5 5 4 5 6 6 6 8
-10 -8 -7 -5 -4 -4 -3 -2 -1 -0 0 2 2 2 3 4 4 4 6 6 6 6 9 7 8 10 10 10 10 10 10 9 9 9 7 5 4 3 4 4 5 5 5
-11 -10 -8 -7 -6 -6 -5 -4 -3 -2 -1 0 1 2 2 2 3 4 4 5 3 4 6 7 4 6 9 9 9 10 10 10 9 8 8 6 5 5 2 2 3 4 3
-12 -11 -10 -9 -8 -7 -6 -5 -5 -4 -3 -2 -1 -0 -0 0 1 1 2 3 3 3 4 2 2 4 4 7 7 7 8 8 9 8 7 7 6 5 4 3 1 2 3
-13 -12 -11 -9 -9 -8 -7 -6 -6 -5 -5 -4 -3 -2 -2 -2 -1 -1 -1 1 1 2 2 3 1 3 2 5 5 5 5 6 8 7 8 7 6 6 6 5 3 3 -0
-13 -13 -12 -11 -10 -9 -8 -8 -7 -6 -6 -5 -5 -4 -4 -3 -3 -2 -2 -1 -2 -0 1 1 1 1 1 1 3 3 4 2 5 5 5 6 5 5 6 4 3 -5 -15
-14 -14 -13 -12 -11 -10 -10 -9 -8 -8 -7 -6 -6 -6 -5 -5 -4 -4 -4 -3 -2 -2 -2 -1 -0 0 -0 0 0 1 2 2 2 3 3 -0 -0 -2 2 1 0 -13 -14
-15 -14 -13 -13 -12 -12 -11 -10 -9 -9 -8 -8 -7 -7 -7 -7 -6 -6 -5 -5 -5 -4 -3 -3 -2 -2 -2 -1 -1 -1 1 0 0 1 1 1 -5 -9 -9 -10 -4 -3 -13
-15 -15 -14 -14 -13 -12 -12 -11 -10 -10 -10 -9 -9 -8 -8 -7 -7 -7 -7 -7 -6 -5 -5 -5 -4 -4 -4 -3 -3 -2 -2 -1 -2 -7 -7 -5 -5 -7 -12 -16 -17 -13 -14
-16 -16 -17 -18 -15 -13 -13 -12 -11 -11 -10 -10 -10 -9 -9 -9 -8 -8 -8 -8 -7 -7 -7 -6 -6 -6 -5 -5 -5 -4 -4 -4 -3 -3 -3 -4 -8 -13 -13 -16 -17 -19 -20
-16 -17 -21 -25 -25 -22 -18 -14 -13 -12 -12 -11 -11 -10 -10 -10 -9 -9 -9 -9 -8 -8 -8 -8 -8 -8 -7 -7 -6 -6 -5 -5 -5 -4 -4 -4 -5 -8 -13 -15 -15 -18 -20
-17 -19 -24 -26 -27 -28 -28 -26 -21 -16 -13 -13 -12 -12 -11 -11 -11 -11 -10 -10 -10 -9 -9 -8 -8 -8 -8 -9 -8 -7 -7 -7 -7 -6 -6 -6 -6 -11 -16 -15 -14 -15 -16
-17 -20 -24 -25 -26 -28 -29 -30 -30 -30 -25 -19 -14 -13 -13 -12 -12 -11 -11 -11 -11 -10 -10 -10 -9 -9 -8 -9 -9 -10 -10 -8 -7 -9 -13 -13 -13 -16 -18 -17 -16 -14 -15
-19 -22 -24 -25 -26 -27 -28 -28 -29 -30 -31 -31 -29 -22 -17 -14 -13 -12 -12 -12 -12 -11 -11 -11 -10 -10 -10 -9 -9 -9 -10 -11 -14 -11 -12 -15 -20 -21 -21 -21 -21 -20 -19
-24 -24 -25 -26 -27 -27 -28 -28 -28 -29 -29 -30 -31 -31 -31 -30 -22 -16 -14 -13 -12 -12 -12 -12 -11 -11 -11 -11 -10 -10 -10 -9 -9 -16 -19 -20 -20 -21 -21 -22 -22 -22 -22
-24 -24 -25 -26 -27 -27 -28 -28 -28 -28 -29 -29 -29 -29 -30 -31 -31 -31 -28 -20 -15 -14 -13 -13 -12 -12 -11 -11 -11 -11 -11 -10 -10 -9 -9 -9 -11 -16 -18 -20 -21 -22 -23
-24 -24 -24 -25 -26 -26 -27 -27 -27 -28 -28 -28 -28 -29 -29 -29 -29 -30 -30 -31 -31 -26 -18 -15 -14 -14 -13 -12 -12 -11 -12 -12 -11 -11 -10 -10 -9 -9 -8 -8 -8 -8 -10
-21 -22 -22 -23 -24 -25 -26 -26 -26 -26 -27 -27 -27 -28 -28 -28 -29 -29 -29 -29 -29 -30 -30 -29 -24 -17 -15 -14 -13 -13 -13 -12 -12 -12 -11 -11 -11 -10 -10 -10 -10 -9 -9
-21 -21 -21 -21 -23 -23 -24 -25 -25 -25 -26 -26 -26 -26 -27 -27 -27 -28 -28 -29 -30 -30 -29 -29 -29 -28 -27 -19 -15 -14 -14 -14 -13 -13 -12 -12 -12 -11 -11 -11 -11 -10 -10
-22 -22 -21 -23 -24 -24 -24 -25 -25 -25 -25 -25 -25 -25 -25 -26 -26 -27 -27 -27 -28 -29 -30 -30 -30 -30 -29 -30 -28 -18 -15 -14 -14 -14 -14 -13 -13 -12 -11 -12 -11 -12 -11
-22 -22 -22 -23 -24 -24 -24 -25 -25 -24 -25 -25 -25 -25 -25 -25 -26 -26 -27 -27 -27 -27 -28 -29 -30 -30 -30 -30 -30 -28 -16 -15 -15 -15 -15 -15 -14 -14 -13 -12 -11 -11 -11
-22 -22 -22 -22 -23 -24 -24 -24 -25 -24 -24 -25 -25 -25 -25 -25 -25 -26 -26 -27 -26 -26 -27 -26 -27 -29 -29 -30 -30 -21 -17 -16 -15 -15 -16 -15 -14 -14 -14 -13 -13 -13 -12
-24 -23 -23 -23 -24 -24 -24 -25 -24 -23 -24 -24 -25 -24 -25 -25 -25 -26 -26 -27 -27 -26 -25 -25 -25 -26 -29 -29 -27 -26 -29 -29 -21 -18 -16 -16 -15 -14 -14 -14 -14 -13 -13
-24 -24 -24 -24 -25 -25 -24 -24 -24 -23 -23 -23 -24 -24 -24 -24 -25 -25 -25 -24 -22 -21 -22 -22 -21 -22 -22 -22 -19 -19 -20 -20 -22 -24 -27 -24 -18 -17 -16 -15 -14 -14 -15
-21 -23 -25 -25 -26 -26 -26 -25 -25 -24 -24 -23 -23 -24 -24 -25 -25 -26 -26 -25 -21 -20 -19 -19 -18 -18 -18 -19 -18 -17 -17 -16 -16 -16 -19 -22 -24 -26 -28 -26 -22 -18 -16
Wind_Speed
16 15 16 14 14 8 6 2 2 5 8 10 14 19 27 27 27 32 40 41 44 43 37 39 41 40 38 36 38 39 39 44 43 44 44 43 45 40 37 38 36 31 28
17 16 15 14 14 12 10 8 7 4 4 5 7 9 14 20 23 23 35 35 35 38 45 46 45 42 40 39 39 41 46 45 47 42 40 24 27 33 37 36 33 35 27
20 18 17 17 14 13 12 10 8 7 4 2 4 7 7 10 15 24 29 31 32 34 38 39 43 42 41 42 41 43 43 47 49 49 31 21 13 27 29 29 31 30 32
18 19 19 17 17 15 12 11 9 7 5 1 2 3 6 9 9 14 21 28 30 27 36 39 34 43 45 45 44 47 45 48 49 48 43 35 30 33 19 26 28 31 26
19 22 22 20 17 16 15 13 11 9 8 6 4 3 3 4 6 8 11 17 18 23 27 26 25 33 34 43 47 49 53 54 45 52 43 38 29 35 37 33 29 27 26
20 23 21 21 21 18 17 16 15 16 14 11 9 7 5 5 3 5 5 9 12 16 20 26 27 25 27 32 39 44 48 47 50 53 50 43 37 40 36 30 35 32 29
24 25 25 25 24 22 21 21 20 20 18 17 15 13 10 8 5 4 4 4 7 11 17 20 22 24 23 29 35 36 44 43 51 49 44 40 37 35 40 38 38 37 31
23 25 26 26 25 24 22 22 22 22 20 19 19 17 14 13 10 8 3 4 4 6 10 14 16 21 24 24 25 33 40 38 39 36 38 33 30 23 34 38 36 33 31
22 24 25 26 25 24 24 23 23 23 22 22 20 18 17 16 13 11 7 6 1 5 2 11 12 14 19 23 23 26 28 31 30 31 31 31 29 20 24 27 30 34 34
20 21 23 23 23 23 24 23 23 24 22 21 20 19 18 17 14 13 12 9 5 4 2 4 8 11 14 15 20 21 26 29 27 22 20 22 23 24 25 25 28 35 34
18 20 20 20 20 20 21 22 22 22 23 22 19 18 18 16 13 14 13 10 9 7 6 2 6 5 9 9 11 14 19 20 27 28 26 26 22 21 25 26 28 34 33
15 16 17 17 18 19 19 19 18 19 20 20 18 18 16 15 14 14 12 10 8 7 6 3 2 3 4 4 7 7 11 12 14 14 16 17 16 20 23 24 29 32 32
13 13 15 17 17 17 17 16 16 15 14 14 15 15 15 15 15 13 11 9 7 6 4 3 4 6 6 4 3 4 5 6 6 9 9 13 16 22 24 26 27 27 27
10 11 13 14 15 15 15 14 14 13 12 11 11 10 12 13 12 11 10 9 7 6 4 3 2 2 4 7 8 7 6 9 12 14 14 16 19 21 24 26 26 26 24
10 11 13 13 13 13 13 13 12 11 11 10 9 9 9 8 7 6 7 6 6 5 4 3 2 2 3 4 9 12 11 10 13 17 17 17 15 15 17 17 19 20 21
10 11 11 11 12 12 13 13 12 12 12 11 10 9 8 7 7 6 5 4 4 3 2 1 0 2 4 5 1 6 10 14 19 14 14 16 17 17 17 19 19 17 20
11 11 11 11 11 11 11 12 12 12 12 12 11 10 9 9 9 8 7 7 7 5 4 4 4 4 4 5 9 3 5 10 13 16 19 21 20 19 18 15 14 18 21
12 11 10 10 9 9 9 9 9 10 11 12 12 11 10 10 9 10 10 10 10 9 9 8 8 8 9 9 7 8 9 10 12 14 17 19 22 23 26 27 27 26 25
12 11 10 11 10 10 9 8 7 7 8 9 10 12 12 11 10 10 10 10 11 11 11 11 12 12 11 10 11 13 14 15 15 15 14 16 19 20 20 23 25 27 27
11 12 12 12 12 11 12 12 11 10 9 7 7 8 10 12 13 13 11 10 11 11 13 14 14 14 16 14 12 10 9 15 19 20 21 19 13 17 17 19 22 24 26
13 14 14 15 12 11 12 11 11 10 11 10 10 9 10 10 11 12 14 13 11 11 12 14 14 16 17 19 18 15 14 13 13 12 14 19 23 17 17 18 23 23 21
15 15 16 15 13 13 14 12 11 10 11 12 12 11 11 11 12 12 12 14 15 14 12 13 14 14 16 17 18 18 16 17 19 19 19 19 16 17 25 26 24 16 21
16 16 17 18 16 15 16 16 11 12 12 12 11 12 12 12 12 13 13 12 14 15 15 14 13 13 13 13 15 17 15 17 20 21 21 21 20 20 23 23 23 25 31
19 18 18 19 19 17 17 18 17 15 14 14 13 13 14 15 15 14 13 13 13 12 12 14 15 13 11 10 6 9 13 17 22 26 25 22 21 20 23 25 22 25 24
22 21 22 23 22 19 19 18 17 16 17 17 17 17 17 16 16 15 14 14 11 13 16 15 15 15 13 10 15 14 15 13 12 12 16 25 31 30 27 22 19 25 29
25 24 25 24 22 20 21 19 19 19 20 21 21 19 19 18 17 17 17 15 16 15 15 16 19 20 20 18 18 19 20 20 21 23 21 16 14 16 19 25 31 32 29
Wind_Direction
44 52 56 64 76 93 88 82 276 254 252 248 232 231 225 227 214 202 194 196 194 197 203 202 200 199 200 200 197 196 192 181 182 181 168 160 165 169 172 170 173 170 173
46 47 50 56 58 61 59 39 27 355 277 245 233 229 231 233 228 220 206 202 204 193 194 200 208 204 200 203 199 198 185 184 180 180 174 154 154 157 157 163 164 163 178
33 42 47 48 52 49 39 31 21 8 349 248 229 225 223 229 223 225 217 205 205 204 201 202 195 206 205 205 205 205 203 197 188 185 182 167 172 167 163 165 161 160 166
43 47 50 51 53 50 51 43 31 17 13 351 229 233 226 219 207 218 231 222 223 217 201 208 207 201 203 205 205 205 209 206 195 197 197 189 196 179 180 179 173 173 179
50 53 54 56 60 64 60 61 53 50 44 53 79 101 173 165 195 196 216 230 235 224 226 215 212 203 204 204 202 198 202 202 208 203 201 202 189 195 188 181 183 188 192
54 61 62 67 66 67 71 70 71 70 63 64 72 86 92 111 129 183 212 214 225 219 227 236 234 209 213 211 209 208 201 203 203 202 204 202 195 192 196 194 191 199 207
61 63 63 64 66 67 69 72 74 74 75 72 73 76 81 91 114 132 204 178 219 208 214 227 237 232 226 213 211 215 210 206 205 203 204 205 203 206 205 208 194 188 187
66 69 66 66 66 67 70 73 74 77 77 78 77 75 77 78 78 85 106 187 219 219 207 217 224 228 233 232 219 214 212 216 215 214 208 205 208 211 210 208 202 175 184
72 70 68 67 67 66 65 70 75 75 76 80 81 82 79 74 74 75 78 68 132 211 193 224 212 215 224 229 229 223 218 220 211 217 222 216 207 213 211 217 214 211 189
72 68 67 66 67 67 68 69 69 71 73 76 77 79 81 84 81 76 73 71 60 55 170 256 211 216 216 217 231 223 222 220 212 193 194 217 226 229 221 218 216 216 217
68 66 64 63 63 65 65 65 67 68 69 68 72 78 80 82 84 85 81 76 71 60 56 199 201 207 211 200 227 227 225 226 222 215 213 209 202 222 224 221 216 210 211
69 61 59 57 56 57 58 58 61 63 65 67 66 67 73 77 80 78 76 79 79 95 113 118 110 178 185 186 203 216 219 223 229 223 218 218 209 220 222 216 213 208 211
60 53 49 46 44 45 47 49 51 54 57 60 63 67 69 67 68 71 74 74 76 78 78 114 161 161 149 146 158 234 211 196 232 239 214 212 210 220 221 218 216 214 216
51 42 37 36 35 35 37 40 41 40 40 42 47 52 57 57 60 62 66 70 74 75 83 93 113 175 193 181 175 183 208 218 202 211 200 207 215 215 217 217 218 219 220
28 27 23 23 23 27 30 35 35 33 30 27 25 30 33 32 38 45 49 55 62 67 74 78 107 172 177 202 215 198 190 192 198 198 198 194 187 192 202 209 213 211 213
12 8 9 9 11 19 20 20 21 23 24 19 16 12 2 0 1 353 354 2 9 9 16 26 352 191 185 158 135 267 234 222 212 199 195 186 188 191 193 190 190 204 211
355 348 347 354 360 4 7 7 9 10 8 11 10 5 360 350 342 335 328 319 315 317 312 294 269 257 229 203 202 116 256 240 239 231 226 227 223 210 210 206 203 201 199
340 337 334 336 341 343 348 352 351 352 353 354 355 355 354 351 343 331 322 314 308 302 298 296 292 278 253 235 225 226 265 245 239 238 235 234 232 229 229 226 226 225 224
329 331 331 330 334 329 330 331 328 335 335 339 340 342 343 345 340 332 324 315 306 300 291 283 278 277 275 262 252 249 260 254 247 243 242 240 240 237 234 234 232 233 234
321 324 327 324 331 329 324 325 324 324 327 329 331 328 327 328 330 331 325 315 308 302 294 289 284 279 277 273 254 246 269 273 263 253 248 238 245 251 243 236 244 241 239
318 317 314 312 315 317 317 317 312 316 317 314 317 319 317 317 318 317 316 317 310 301 295 291 285 280 277 271 264 268 272 262 269 268 259 253 242 223 242 242 245 247 253
301 301 300 303 307 308 307 308 307 308 311 307 307 308 309 310 311 309 305 302 306 306 298 292 290 286 278 273 269 268 270 268 271 270 270 262 257 248 237 229 231 244 245
293 293 292 292 294 297 296 297 308 297 301 303 303 304 306 307 303 299 297 295 294 299 308 307 300 294 290 280 269 272 269 259 262 264 268 270 266 261 256 251 249 247 248
289 287 285 285 288 290 288 291 293 290 290 294 300 305 305 308 305 301 293 292 296 304 305 307 314 313 301 298 290 284 277 271 254 243 242 242 247 248 250 250 247 242 243
289 287 284 282 283 283 283 284 282 281 285 292 295 298 297 294 290 289 290 293 295 298 299 303 306 307 306 309 303 290 296 298 301 290 269 256 250 249 246 244 238 240 246
291 286 283 281 284 282 281 280 280 280 283 283 285 287 284 282 282 286 290 285 284 281 279 281 286 295 297 292 285 279 275 272 273 262 265 262 259 257 254 255 256 257 253
Height
1438 1436 1435 1434 1434 1434 1434 1433 1434 1435 1435 1438 1440 1444 1444 1449 1450 1449 1452 1458 1464 1469 1476 1482 1485 1489 1493 1498 1503 1508 1513 1518 1523 1527 1532 1534 1539 1544 1548 1551 1553 1557 1560
1436 1435 1436 1435 1435 1435 1435 1434 1434 1435 1434 1434 1435 1440 1442 1445 1447 1451 1456 1455 1459 1461 1467 1475 1481 1484 1489 1493 1497 1502 1507 1514 1517 1521 1532 1537 1540 1542 1542 1548 1552 1555 1556
1440 1439 1437 1437 1436 1436 1436 1434 1435 1435 1434 1433 1435 1439 1439 1442 1447 1449 1451 1452 1458 1459 1463 1467 1470 1479 1483 1488 1492 1496 1501 1506 1512 1518 1521 1529 1536 1541 1542 1547 1548 1551 1556
1446 1443 1439 1439 1438 1439 1437 1436 1435 1435 1433 1433 1434 1434 1437 1445 1443 1447 1449 1446 1460 1459 1459 1464 1469 1471 1474 1480 1487 1491 1496 1501 1505 1510 1514 1516 1520 1528 1540 1543 1545 1550 1556
1448 1446 1444 1443 1441 1440 1437 1437 1436 1434 1434 1433 1434 1435 1441 1438 1442 1444 1449 1451 1454 1457 1459 1466 1466 1465 1470 1474 1477 1484 1489 1493 1499 1504 1507 1513 1515 1521 1525 1533 1539 1546 1550
1450 1447 1447 1445 1442 1440 1440 1439 1436 1435 1436 1435 1435 1436 1437 1438 1438 1443 1445 1447 1453 1452 1458 1462 1467 1461 1467 1471 1475 1478 1481 1489 1493 1497 1501 1503 1507 1510 1517 1522 1531 1535 1541
1451 1450 1449 1446 1445 1445 1444 1441 1439 1438 1437 1438 1437 1436 1438 1439 1442 1440 1447 1443 1453 1452 1454 1459 1463 1460 1467 1469 1471 1476 1479 1483 1487 1493 1495 1498 1502 1505 1508 1513 1521 1529 1539
1457 1455 1453 1451 1450 1449 1447 1444 1442 1442 1440 1440 1439 1440 1440 1441 1442 1441 1447 1452 1448 1450 1453 1456 1457 1458 1465 1469 1469 1473 1473 1478 1484 1488 1492 1496 1499 1501 1505 1508 1513 1527 1534
1459 1457 1456 1455 1454 1453 1450 1448 1446 1444 1444 1443 1443 1443 1442 1442 1445 1447 1448 1444 1453 1456 1445 1458 1455 1458 1459 1466 1466 1471 1471 1476 1476 1480 1489 1491 1497 1501 1504 1508 1508 1513 1522
1461 1461 1460 1459 1459 1457 1455 1453 1449 1448 1448 1445 1446 1446 1446 1445 1447 1448 1448 1450 1453 1447 1450 1454 1454 1459 1462 1462 1468 1469 1471 1474 1472 1482 1480 1489 1494 1500 1501 1503 1507 1510 1512
1465 1464 1464 1463 1462 1460 1457 1455 1453 1452 1450 1450 1450 1450 1449 1450 1450 1450 1449 1450 1450 1450 1449 1460 1461 1458 1464 1457 1467 1468 1470 1471 1478 1476 1479 1483 1486 1497 1499 1502 1505 1506 1508
1468 1467 1467 1466 1464 1462 1460 1458 1458 1456 1455 1454 1454 1453 1453 1453 1453 1452 1452 1453 1454 1454 1457 1459 1457 1462 1460 1460 1463 1469 1471 1471 1476 1473 1474 1481 1484 1494 1499 1498 1505 1504 1506
1470 1469 1468 1466 1465 1464 1463 1462 1461 1460 1459 1458 1457 1456 1456 1456 1455 1455 1456 1456 1455 1457 1458 1459 1462 1462 1461 1462 1464 1470 1467 1467 1473 1477 1476 1482 1485 1491 1496 1500 1503 1504 1506
1471 1469 1467 1466 1466 1465 1463 1462 1461 1461 1460 1459 1458 1457 1457 1457 1458 1459 1458 1458 1459 1459 1460 1461 1461 1461 1462 1464 1464 1471 1473 1473 1471 1480 1478 1483 1487 1487 1493 1496 1496 1500 1505
1470 1468 1467 1466 1467 1465 1464 1463 1462 1461 1460 1459 1459 1458 1458 1458 1458 1458 1459 1461 1461 1461 1460 1460 1462 1463 1463 1467 1471 1472 1471 1472 1476 1481 1480 1479 1481 1487 1490 1492 1493 1496 1502
1471 1469 1468 1467 1466 1465 1464 1462 1462 1461 1460 1459 1458 1457 1457 1457 1457 1457 1458 1459 1459 1460 1460 1462 1462 1464 1466 1469 1471 1472 1473 1476 1480 1476 1479 1476 1479 1484 1487 1489 1488 1496 1499
1473 1472 1470 1468 1467 1465 1464 1463 1461 1460 1459 1459 1458 1458 1457 1456 1456 1456 1456 1457 1458 1459 1460 1461 1462 1464 1466 1468 1470 1471 1470 1471 1470 1473 1474 1478 1482 1480 1486 1488 1488 1492 1497
1473 1472 1470 1469 1468 1467 1466 1465 1463 1462 1461 1459 1457 1458 1457 1456 1456 1456 1456 1456 1457 1458 1459 1460 1461 1462 1464 1464 1466 1469 1468 1469 1470 1470 1472 1474 1478 1479 1481 1483 1486 1489 1493
1473 1471 1470 1469 1468 1467 1466 1465 1464 1463 1462 1461 1459 1458 1457 1456 1456 1457 1457 1456 1456 1457 1457 1458 1458 1459 1460 1462 1464 1466 1466 1467 1466 1468 1470 1471 1473 1474 1477 1478 1481 1483 1486
1471 1470 1469 1468 1466 1465 1464 1463 1462 1461 1461 1461 1459 1459 1457 1456 1455 1455 1456 1456 1455 1455 1456 1455 1456 1456 1457 1459 1460 1462 1463 1464 1464 1465 1466 1468 1468 1469 1472 1474 1475 1477 1480
1468 1467 1466 1466 1465 1464 1462 1461 1459 1459 1458 1458 1457 1457 1456 1456 1455 1454 1454 1454 1453 1453 1453 1453 1453 1452 1453 1453 1455 1457 1458 1460 1461 1461 1460 1460 1462 1465 1468 1469 1470 1470 1474
1466 1466 1464 1463 1463 1461 1459 1458 1457 1455 1455 1455 1454 1454 1453 1453 1453 1452 1451 1451 1449 1449 1450 1448 1449 1448 1449 1450 1449 1450 1452 1455 1455 1455 1455 1456 1458 1458 1460 1461 1463 1466 1467
1463 1463 1461 1460 1459 1457 1456 1454 1454 1453 1452 1451 1450 1450 1450 1449 1450 1449 1449 1448 1447 1445 1444 1444 1445 1444 1445 1445 1445 1444 1446 1449 1450 1450 1449 1451 1452 1453 1455 1456 1457 1459 1459
1459 1458 1457 1455 1454 1453 1451 1450 1449 1449 1447 1447 1446 1446 1446 1444 1445 1444 1445 1443 1442 1441 1441 1441 1441 1442 1441 1442 1441 1440 1440 1440 1441 1442 1442 1443 1444 1446 1446 1448 1449 1450 1452
1452 1451 1450 1449 1448 1448 1446 1445 1444 1443 1442 1441 1441 1441 1440 1441 1441 1440 1438 1438 1439 1439 1438 1438 1439 1439 1439 1439 1438 1438 1437 1438 1438 1437 1437 1436 1437 1439 1440 1441 1442 1444 1446
1444 1443 1442 1441 1440 1439 1438 1438 1437 1436 1436 1435 1436 1436 1436 1436 1435 1434 1433 1433 1434 1435 1436 1436 1436 1434 1434 1433 1434 1435 1435 1434 1434 1432 1431 1431 1431 1432 1433 1434 1436 1437 1439